TimeCST,TemperatureF,Dew PointF,Humidity,Sea Level PressureIn,VisibilityMPH,Wind Direction,Wind SpeedMPH,Gust SpeedMPH,PrecipitationIn,Events,Conditions,WindDirDegrees,DateUTC
12:52 AM,30.9,25.0,79,30.15,10.0,Calm,Calm,-,N/A,,Clear,0,2013-02-28 06:52:00
1:52 AM,28.9,25.0,85,30.16,10.0,West,4.6,-,N/A,,Partly Cloudy,280,2013-02-28 07:52:00
2:25 AM,30.2,26.6,86,30.13,10.0,Calm,Calm,-,N/A,,Mostly Cloudy,0,2013-02-28 08:25:00
2:52 AM,32.0,26.1,79,30.15,10.0,Calm,Calm,-,N/A,,Overcast,0,2013-02-28 08:52:00
3:52 AM,34.0,26.1,73,30.15,10.0,Variable,3.5,-,N/A,,Overcast,0,2013-02-28 09:52:00
4:52 AM,34.0,26.1,73,30.17,10.0,NNW,8.1,-,N/A,,Overcast,340,2013-02-28 10:52:00
5:52 AM,33.1,26.1,75,30.19,10.0,North,5.8,-,N/A,,Overcast,350,2013-02-28 11:52:00
6:52 AM,33.1,25.0,72,30.21,10.0,Variable,4.6,-,N/A,,Overcast,0,2013-02-28 12:52:00
7:52 AM,32.0,25.0,75,30.23,10.0,North,9.2,18.4,N/A,,Overcast,360,2013-02-28 13:52:00
8:52 AM,32.0,24.1,73,30.24,10.0,North,10.4,18.4,N/A,,Overcast,360,2013-02-28 14:52:00
9:33 AM,32.0,24.8,75,30.21,10.0,North,8.1,-,N/A,,Overcast,350,2013-02-28 15:33:00
9:52 AM,33.1,25.0,72,30.24,10.0,NNW,8.1,-,N/A,,Overcast,340,2013-02-28 15:52:00
10:52 AM,33.1,25.0,72,30.25,10.0,NNW,10.4,18.4,N/A,,Overcast,340,2013-02-28 16:52:00
11:25 AM,33.8,24.8,70,30.23,10.0,Variable,4.6,-,N/A,,Overcast,0,2013-02-28 17:25:00
11:52 AM,34.0,25.0,70,30.26,10.0,North,9.2,16.1,N/A,,Overcast,360,2013-02-28 17:52:00
12:52 PM,34.0,25.0,70,30.25,10.0,North,6.9,-,N/A,,Overcast,360,2013-02-28 18:52:00
1:52 PM,34.0,25.0,70,30.24,10.0,North,9.2,-,N/A,,Overcast,10,2013-02-28 19:52:00
2:52 PM,34.0,25.0,70,30.23,10.0,NNW,6.9,-,N/A,,Overcast,340,2013-02-28 20:52:00
3:52 PM,34.0,25.0,70,30.24,10.0,NNW,8.1,-,N/A,,Overcast,340,2013-02-28 21:52:00
4:52 PM,34.0,23.0,64,30.24,10.0,North,4.6,-,N/A,,Overcast,360,2013-02-28 22:52:00
5:52 PM,34.0,24.1,67,30.24,10.0,North,3.5,-,N/A,,Overcast,350,2013-02-28 23:52:00
6:52 PM,34.0,25.0,70,30.25,10.0,Calm,Calm,-,N/A,,Overcast,0,2013-03-01 00:52:00
7:52 PM,33.1,25.0,72,30.27,10.0,NNW,4.6,-,N/A,,Overcast,330,2013-03-01 01:52:00
8:52 PM,33.1,25.0,72,30.27,10.0,North,5.8,-,N/A,,Overcast,360,2013-03-01 02:52:00
9:52 PM,33.1,25.0,72,30.26,10.0,North,3.5,-,N/A,,Overcast,350,2013-03-01 03:52:00
10:52 PM,33.1,24.1,70,30.26,10.0,Calm,Calm,-,N/A,,Overcast,0,2013-03-01 04:52:00
11:52 PM,32.0,23.0,69,30.26,10.0,NNE,10.4,16.1,N/A,,Overcast,20,2013-03-01 05:52:00